TimeEST,TemperatureF,Dew PointF,Humidity,Sea Level PressureIn,VisibilityMPH,Wind Direction,Wind SpeedMPH,Gust SpeedMPH,PrecipitationIn,Events,Conditions,WindDirDegrees,DateUTC
12:06 AM,41.0,37.4,87,29.97,3.0,NE,12.7,-,N/A,,Overcast,50,2012-12-17 05:06:00
12:47 AM,41.0,37.4,87,29.95,5.0,NE,15.0,-,0.00,Rain,Light Rain,50,2012-12-17 05:47:00
12:56 AM,41.0,37.4,87,29.95,4.0,ENE,15.0,-,N/A,Rain,Light Rain,60,2012-12-17 05:56:00
1:56 AM,39.9,37.9,93,29.95,3.0,NE,13.8,-,0.00,Rain,Light Rain,50,2012-12-17 06:56:00
2:48 AM,39.2,37.4,93,29.94,5.0,NE,15.0,-,0.00,Rain,Light Rain,50,2012-12-17 07:48:00
2:56 AM,39.9,37.9,93,29.94,5.0,NE,15.0,-,0.00,Rain,Light Rain,50,2012-12-17 07:56:00
3:56 AM,41.0,39.0,93,29.92,5.0,NE,17.3,24.2,0.00,Rain,Light Rain,50,2012-12-17 08:56:00
4:14 AM,41.0,39.2,93,29.92,5.0,NE,13.8,-,0.00,Rain,Rain,50,2012-12-17 09:14:00
4:54 AM,42.8,39.2,87,29.90,5.0,ENE,16.1,23.0,0.02,Rain,Light Rain,60,2012-12-17 09:54:00
4:56 AM,42.1,39.0,89,29.90,5.0,ENE,13.8,23.0,0.02,Rain,Light Rain,60,2012-12-17 09:56:00
5:56 AM,42.1,39.0,89,29.88,10.0,NE,15.0,23.0,0.00,Rain,Light Rain,50,2012-12-17 10:56:00
6:22 AM,42.8,39.2,87,29.91,10.0,NE,12.7,-,0.00,Rain,Light Rain,40,2012-12-17 11:22:00
6:56 AM,43.0,41.0,93,29.88,8.0,NE,18.4,25.3,0.00,Rain,Light Rain,50,2012-12-17 11:56:00
7:01 AM,42.8,41.0,93,29.88,8.0,NE,17.3,25.3,0.00,Rain,Light Rain,50,2012-12-17 12:01:00
7:10 AM,42.8,41.0,93,29.88,8.0,NE,15.0,23.0,0.00,Rain,Light Rain,40,2012-12-17 12:10:00
7:56 AM,44.1,41.0,89,29.91,10.0,NE,13.8,-,0.00,,Overcast,40,2012-12-17 12:56:00
8:56 AM,44.1,41.0,89,29.90,10.0,NE,12.7,-,N/A,,Overcast,40,2012-12-17 13:56:00
9:56 AM,45.0,42.1,90,29.91,8.0,NE,12.7,-,N/A,,Overcast,40,2012-12-17 14:56:00
10:56 AM,46.0,43.0,89,29.90,8.0,NE,11.5,-,N/A,,Overcast,40,2012-12-17 15:56:00
11:29 AM,46.4,42.8,87,29.87,8.0,NE,11.5,-,N/A,,Overcast,50,2012-12-17 16:29:00
11:56 AM,46.9,44.1,90,29.86,8.0,NE,11.5,-,N/A,,Overcast,50,2012-12-17 16:56:00
12:48 PM,46.4,44.6,93,29.88,5.0,NNE,11.5,-,N/A,,Overcast,20,2012-12-17 17:48:00
12:56 PM,46.0,44.1,93,29.88,6.0,NNE,8.1,-,N/A,,Overcast,20,2012-12-17 17:56:00
1:56 PM,46.0,43.0,89,29.87,9.0,NNE,11.5,-,N/A,,Overcast,30,2012-12-17 18:56:00
2:21 PM,46.4,42.8,87,29.86,10.0,NE,11.5,-,N/A,,Overcast,50,2012-12-17 19:21:00
2:44 PM,46.4,42.8,87,29.83,10.0,NE,11.5,-,N/A,,Overcast,50,2012-12-17 19:44:00
2:56 PM,46.9,43.0,86,29.83,10.0,NE,11.5,-,N/A,,Overcast,50,2012-12-17 19:56:00
3:10 PM,46.4,42.8,87,29.83,10.0,NE,10.4,-,N/A,,Overcast,50,2012-12-17 20:10:00
3:56 PM,46.9,44.1,90,29.83,10.0,NE,10.4,-,N/A,,Overcast,50,2012-12-17 20:56:00
4:33 PM,46.4,44.6,93,29.82,8.0,NE,11.5,-,N/A,,Overcast,50,2012-12-17 21:33:00
4:56 PM,46.9,44.1,90,29.82,7.0,NE,9.2,-,N/A,,Overcast,40,2012-12-17 21:56:00
7:56 PM,46.0,44.1,93,29.82,4.0,NE,8.1,-,N/A,,Overcast,40,2012-12-18 00:56:00
8:56 PM,46.0,44.1,93,29.78,8.0,NE,10.4,-,N/A,,Overcast,50,2012-12-18 01:56:00
9:56 PM,46.9,45.0,93,29.77,2.0,NE,10.4,-,N/A,,Overcast,40,2012-12-18 02:56:00
10:56 PM,46.9,45.0,93,29.73,2.0,NE,12.7,-,0.00,,Overcast,50,2012-12-18 03:56:00
11:44 PM,46.4,44.6,93,29.71,3.0,NE,11.5,-,0.00,Rain,Light Rain,40,2012-12-18 04:44:00
11:54 PM,46.4,44.6,93,29.70,2.5,ENE,10.4,-,0.00,Rain,Light Rain,60,2012-12-18 04:54:00
11:56 PM,46.0,44.1,93,29.70,2.5,NE,10.4,-,0.00,Rain,Light Rain,50,2012-12-18 04:56:00